Time,TemperatureF,DewpointF,PressureIn,WindDirection,WindDirectionDegrees,WindSpeedMPH,WindSpeedGustMPH,Humidity,HourlyPrecipIn,Conditions,Clouds,dailyrainin,SoftwareType,DateUTC
2013-02-05 00:00:00,30.9,23.9,29.92,WSW,256,8.0,11.0,75,0.00,,---,0.00,VWS V13.00,2013-02-05 07:00:00,
2013-02-05 00:05:00,30.9,23.9,29.92,WSW,258,10.0,11.0,75,0.00,,---,0.00,VWS V13.00,2013-02-05 07:05:00,
2013-02-05 00:10:00,30.9,23.9,29.92,WSW,256,7.0,9.0,75,0.00,,---,0.00,VWS V13.00,2013-02-05 07:10:00,
2013-02-05 00:15:00,31.1,24.1,29.92,WSW,254,8.0,10.0,75,0.00,,---,0.00,VWS V13.00,2013-02-05 07:15:00,
2013-02-05 00:20:00,31.1,23.8,29.92,WSW,254,7.0,10.0,74,0.00,,---,0.00,VWS V13.00,2013-02-05 07:20:00,
2013-02-05 00:25:00,31.1,23.8,29.92,WSW,252,7.0,11.0,74,0.00,,---,0.00,VWS V13.00,2013-02-05 07:25:00,
2013-02-05 00:30:00,31.2,23.9,29.92,WSW,250,9.0,11.0,74,0.00,,---,0.00,VWS V13.00,2013-02-05 07:30:00,
2013-02-05 00:35:00,31.1,23.5,29.92,WSW,250,7.0,11.0,73,0.00,,---,0.00,VWS V13.00,2013-02-05 07:35:00,
2013-02-05 00:40:00,31.0,23.7,29.92,WSW,250,5.0,9.0,74,0.00,,---,0.00,VWS V13.00,2013-02-05 07:40:00,
2013-02-05 00:45:00,31.1,23.8,29.92,WSW,253,7.0,11.0,74,0.00,,---,0.00,VWS V13.00,2013-02-05 07:45:00,
2013-02-05 00:50:00,31.4,24.1,29.92,West,280,6.0,12.0,74,0.00,,---,0.00,VWS V13.00,2013-02-05 07:50:00,
2013-02-05 00:55:00,32.0,24.3,29.91,West,275,10.0,12.0,73,0.00,,---,0.00,VWS V13.00,2013-02-05 07:55:00,
2013-02-05 01:00:00,32.3,24.6,29.91,West,272,10.0,12.0,73,0.00,,---,0.00,VWS V13.00,2013-02-05 08:00:00,
2013-02-05 01:05:00,32.5,24.5,29.91,West,269,11.0,12.0,72,0.00,,---,0.00,VWS V13.00,2013-02-05 08:05:00,
2013-02-05 01:10:00,32.4,24.4,29.91,WSW,254,7.0,9.0,72,0.00,,---,0.00,VWS V13.00,2013-02-05 08:10:00,
2013-02-05 01:15:00,32.2,24.2,29.91,WSW,248,7.0,11.0,72,0.00,,---,0.00,VWS V13.00,2013-02-05 08:15:00,
2013-02-05 01:20:00,31.9,23.9,29.91,WSW,239,9.0,11.0,72,0.00,,---,0.00,VWS V13.00,2013-02-05 08:20:00,
2013-02-05 01:25:00,31.4,23.8,29.92,WSW,238,8.0,11.0,73,0.00,,---,0.00,VWS V13.00,2013-02-05 08:25:00,
2013-02-05 01:30:00,31.0,23.7,29.92,WSW,239,7.0,11.0,74,0.00,,---,0.00,VWS V13.00,2013-02-05 08:30:00,
2013-02-05 01:35:00,30.8,23.8,29.92,SW,225,6.0,11.0,75,0.00,,---,0.00,VWS V13.00,2013-02-05 08:35:00,
2013-02-05 01:40:00,30.8,23.8,29.92,SW,221,10.0,11.0,75,0.00,,---,0.00,VWS V13.00,2013-02-05 08:40:00,
2013-02-05 01:45:00,31.5,24.2,29.92,SW,234,9.0,12.0,74,0.00,,---,0.00,VWS V13.00,2013-02-05 08:45:00,
2013-02-05 01:50:00,32.2,24.5,29.92,WSW,238,7.0,14.0,73,0.00,,---,0.00,VWS V13.00,2013-02-05 08:50:00,
2013-02-05 01:55:00,32.6,24.6,29.91,WSW,244,7.0,14.0,72,0.00,,---,0.00,VWS V13.00,2013-02-05 08:55:00,
2013-02-05 02:00:00,32.7,24.7,29.91,WSW,242,9.0,14.0,72,0.00,,---,0.00,VWS V13.00,2013-02-05 09:00:00,
2013-02-05 02:05:00,32.6,24.6,29.91,SW,236,5.0,14.0,72,0.00,,---,0.00,VWS V13.00,2013-02-05 09:05:00,
2013-02-05 02:10:00,32.4,24.7,29.92,WSW,240,9.0,10.0,73,0.00,,---,0.00,VWS V13.00,2013-02-05 09:10:00,
2013-02-05 02:15:00,32.2,24.5,29.92,WSW,243,6.0,10.0,73,0.00,,---,0.00,VWS V13.00,2013-02-05 09:15:00,
2013-02-05 02:20:00,32.0,24.7,29.92,WSW,242,9.0,10.0,74,0.00,,---,0.00,VWS V13.00,2013-02-05 09:20:00,
2013-02-05 02:25:00,31.8,24.5,29.91,SW,236,8.0,10.0,74,0.00,,---,0.00,VWS V13.00,2013-02-05 09:25:00,
2013-02-05 02:30:00,31.6,24.3,29.91,SW,231,6.0,11.0,74,0.00,,---,0.00,VWS V13.00,2013-02-05 09:30:00,
2013-02-05 02:35:00,31.5,24.2,29.91,SW,234,6.0,11.0,74,0.00,,---,0.00,VWS V13.00,2013-02-05 09:35:00,
2013-02-05 02:40:00,31.5,24.2,29.91,SW,233,7.0,7.0,74,0.00,,---,0.00,VWS V13.00,2013-02-05 09:40:00,
2013-02-05 02:45:00,31.4,24.4,29.91,SW,234,7.0,10.0,75,0.00,,---,0.00,VWS V13.00,2013-02-05 09:45:00,
2013-02-05 02:50:00,31.3,24.3,29.91,SW,234,6.0,10.0,75,0.00,,---,0.00,VWS V13.00,2013-02-05 09:50:00,
2013-02-05 02:55:00,31.2,24.2,29.92,SW,234,7.0,10.0,75,0.00,,---,0.00,VWS V13.00,2013-02-05 09:55:00,
2013-02-05 03:00:00,31.0,24.3,29.92,SW,234,6.0,10.0,76,0.00,,---,0.00,VWS V13.00,2013-02-05 10:00:00,
2013-02-05 03:05:00,31.0,24.3,29.92,SW,234,6.0,10.0,76,0.00,,---,0.00,VWS V13.00,2013-02-05 10:05:00,
2013-02-05 03:10:00,31.0,24.3,29.92,SW,230,5.0,7.0,76,0.00,,---,0.00,VWS V13.00,2013-02-05 10:10:00,
2013-02-05 03:15:00,31.0,24.3,29.92,SW,229,5.0,9.0,76,0.00,,---,0.00,VWS V13.00,2013-02-05 10:15:00,
2013-02-05 03:20:00,31.2,24.2,29.92,SW,229,5.0,9.0,75,0.00,,---,0.00,VWS V13.00,2013-02-05 10:20:00,
2013-02-05 03:25:00,31.3,24.3,29.92,SW,229,4.0,9.0,75,0.00,,---,0.00,VWS V13.00,2013-02-05 10:25:00,
2013-02-05 03:30:00,31.6,24.0,29.92,SW,225,5.0,9.0,73,0.00,,---,0.00,VWS V13.00,2013-02-05 10:30:00,
2013-02-05 03:35:00,31.8,24.1,29.92,SW,223,4.0,9.0,73,0.00,,---,0.00,VWS V13.00,2013-02-05 10:35:00,
2013-02-05 03:40:00,32.0,24.0,29.92,SW,223,4.0,6.0,72,0.00,,---,0.00,VWS V13.00,2013-02-05 10:40:00,
2013-02-05 03:45:00,32.2,24.2,29.92,SW,223,6.0,9.0,72,0.00,,---,0.00,VWS V13.00,2013-02-05 10:45:00,
2013-02-05 03:50:00,32.4,24.1,29.92,SW,223,5.0,9.0,71,0.00,,---,0.00,VWS V13.00,2013-02-05 10:50:00,
2013-02-05 03:55:00,32.5,24.2,29.92,SW,219,5.0,9.0,71,0.00,,---,0.00,VWS V13.00,2013-02-05 10:55:00,
2013-02-05 04:00:00,32.4,24.1,29.92,SW,221,5.0,9.0,71,0.00,,---,0.00,VWS V13.00,2013-02-05 11:00:00,
2013-02-05 04:05:00,32.4,23.7,29.92,SW,218,5.0,9.0,70,0.00,,---,0.00,VWS V13.00,2013-02-05 11:05:00,
2013-02-05 04:10:00,32.3,23.6,29.92,SW,217,4.0,7.0,70,0.00,,---,0.00,VWS V13.00,2013-02-05 11:10:00,
2013-02-05 04:15:00,32.2,23.5,29.92,SW,217,6.0,7.0,70,0.00,,---,0.00,VWS V13.00,2013-02-05 11:15:00,
2013-02-05 04:20:00,32.2,23.5,29.92,SW,218,5.0,7.0,70,0.00,,---,0.00,VWS V13.00,2013-02-05 11:20:00,
2013-02-05 04:25:00,32.1,23.4,29.92,SW,218,3.0,7.0,70,0.00,,---,0.00,VWS V13.00,2013-02-05 11:25:00,
2013-02-05 04:30:00,32.1,23.4,29.92,SW,218,4.0,7.0,70,0.00,,---,0.00,VWS V13.00,2013-02-05 11:30:00,
2013-02-05 04:35:00,32.1,23.4,29.92,SW,218,5.0,7.0,70,0.00,,---,0.00,VWS V13.00,2013-02-05 11:35:00,
2013-02-05 04:40:00,32.1,23.4,29.91,SW,218,4.0,5.0,70,0.00,,---,0.00,VWS V13.00,2013-02-05 11:40:00,
2013-02-05 04:45:00,32.1,23.4,29.91,SW,218,3.0,6.0,70,0.00,,---,0.00,VWS V13.00,2013-02-05 11:45:00,
2013-02-05 04:50:00,32.1,23.1,29.91,SW,218,2.0,6.0,69,0.00,,---,0.00,VWS V13.00,2013-02-05 11:50:00,
2013-02-05 04:55:00,32.2,23.2,29.92,SW,218,4.0,6.0,69,0.00,,---,0.00,VWS V13.00,2013-02-05 11:55:00,
2013-02-05 05:00:00,32.3,23.3,29.92,SW,219,3.0,6.0,69,0.00,,---,0.00,VWS V13.00,2013-02-05 12:00:00,
2013-02-05 05:05:00,32.4,23.4,29.92,SW,218,3.0,6.0,69,0.00,,---,0.00,VWS V13.00,2013-02-05 12:05:00,
2013-02-05 05:10:00,32.4,23.0,29.92,SW,218,3.0,4.0,68,0.00,,---,0.00,VWS V13.00,2013-02-05 12:10:00,
2013-02-05 05:15:00,32.4,23.0,29.92,SW,218,3.0,4.0,68,0.00,,---,0.00,VWS V13.00,2013-02-05 12:15:00,
2013-02-05 05:20:00,32.0,23.7,29.92,SW,218,2.0,4.0,71,0.00,,---,0.00,VWS V13.00,2013-02-05 12:20:00,
2013-02-05 05:25:00,30.9,23.3,29.92,SW,218,4.0,5.0,73,0.00,,---,0.00,VWS V13.00,2013-02-05 12:25:00,
2013-02-05 05:30:00,30.0,23.0,29.92,SW,218,3.0,5.0,75,0.00,,---,0.00,VWS V13.00,2013-02-05 12:30:00,
2013-02-05 05:35:00,29.6,23.0,29.92,SW,218,4.0,5.0,76,0.00,,---,0.00,VWS V13.00,2013-02-05 12:35:00,
2013-02-05 05:40:00,29.1,23.1,29.93,SW,218,4.0,5.0,78,0.00,,---,0.00,VWS V13.00,2013-02-05 12:40:00,
2013-02-05 05:45:00,28.8,22.8,29.93,SW,217,2.0,5.0,78,0.00,,---,0.00,VWS V13.00,2013-02-05 12:45:00,
2013-02-05 05:50:00,28.8,22.8,29.93,SW,217,0.0,5.0,78,0.00,,---,0.00,VWS V13.00,2013-02-05 12:50:00,
2013-02-05 05:55:00,28.8,22.8,29.94,SW,217,2.0,5.0,78,0.00,,---,0.00,VWS V13.00,2013-02-05 12:55:00,
2013-02-05 06:00:00,28.6,22.6,29.94,SW,217,2.0,5.0,78,0.00,,---,0.00,VWS V13.00,2013-02-05 13:00:00,
2013-02-05 06:05:00,28.3,22.6,29.94,SW,217,3.0,5.0,79,0.00,,---,0.00,VWS V13.00,2013-02-05 13:05:00,
2013-02-05 06:10:00,28.0,22.6,29.94,SW,217,3.0,3.0,80,0.00,,---,0.00,VWS V13.00,2013-02-05 13:10:00,
2013-02-05 06:15:00,27.8,22.4,29.94,SW,217,3.0,3.0,80,0.00,,---,0.00,VWS V13.00,2013-02-05 13:15:00,
2013-02-05 06:20:00,27.9,22.5,29.94,SW,217,2.0,3.0,80,0.00,,---,0.00,VWS V13.00,2013-02-05 13:20:00,
2013-02-05 06:25:00,27.8,22.4,29.94,SW,217,3.0,4.0,80,0.00,,---,0.00,VWS V13.00,2013-02-05 13:25:00,
2013-02-05 06:30:00,27.6,22.5,29.94,SW,217,4.0,5.0,81,0.00,,---,0.00,VWS V13.00,2013-02-05 13:30:00,
2013-02-05 06:35:00,27.2,22.1,29.94,SW,217,5.0,5.0,81,0.00,,---,0.00,VWS V13.00,2013-02-05 13:35:00,
2013-02-05 06:40:00,27.1,22.1,29.95,SW,217,4.0,5.0,81,0.00,,---,0.00,VWS V13.00,2013-02-05 13:40:00,
2013-02-05 06:45:00,27.0,22.2,29.95,SW,217,4.0,6.0,82,0.00,,---,0.00,VWS V13.00,2013-02-05 13:45:00,
2013-02-05 06:50:00,26.8,22.0,29.95,SW,217,6.0,6.0,82,0.00,,---,0.00,VWS V13.00,2013-02-05 13:50:00,
2013-02-05 06:55:00,26.8,22.0,29.94,SW,217,4.0,6.0,82,0.00,,---,0.00,VWS V13.00,2013-02-05 13:55:00,
2013-02-05 07:00:00,26.9,22.1,29.94,SW,217,6.0,6.0,82,0.00,,---,0.00,VWS V13.00,2013-02-05 14:00:00,
2013-02-05 07:05:00,26.7,21.7,29.94,SW,217,5.0,6.0,81,0.00,,---,0.00,VWS V13.00,2013-02-05 14:05:00,
2013-02-05 07:10:00,26.5,21.5,29.94,SW,217,5.0,6.0,81,0.00,,---,0.00,VWS V13.00,2013-02-05 14:10:00,
2013-02-05 07:15:00,26.4,21.4,29.94,SW,214,5.0,6.0,81,0.00,,---,0.00,VWS V13.00,2013-02-05 14:15:00,
2013-02-05 07:20:00,26.2,21.5,29.94,SSW,211,4.0,6.0,82,0.00,,---,0.00,VWS V13.00,2013-02-05 14:20:00,
2013-02-05 07:25:00,26.2,21.5,29.94,SSW,210,4.0,6.0,82,0.00,,---,0.00,VWS V13.00,2013-02-05 14:25:00,
2013-02-05 07:30:00,26.2,21.5,29.94,SSW,209,7.0,7.0,82,0.00,,---,0.00,VWS V13.00,2013-02-05 14:30:00,
2013-02-05 07:35:00,26.1,21.1,29.94,SSW,209,5.0,7.0,81,0.00,,---,0.00,VWS V13.00,2013-02-05 14:35:00,
2013-02-05 07:40:00,26.0,21.0,29.94,SSW,209,4.0,5.0,81,0.00,,---,0.00,VWS V13.00,2013-02-05 14:40:00,
2013-02-05 07:45:00,26.0,21.3,29.94,SSW,209,5.0,6.0,82,0.00,,---,0.00,VWS V13.00,2013-02-05 14:45:00,
2013-02-05 07:50:00,25.9,21.2,29.94,SSW,209,3.0,6.0,82,0.00,,---,0.00,VWS V13.00,2013-02-05 14:50:00,
2013-02-05 07:55:00,25.8,21.1,29.94,SSW,209,2.0,6.0,82,0.00,,---,0.00,VWS V13.00,2013-02-05 14:55:00,
2013-02-05 08:00:00,26.0,21.3,29.94,SSW,196,6.0,7.0,82,0.00,,---,0.00,VWS V13.00,2013-02-05 15:00:00,
2013-02-05 08:05:00,26.2,21.5,29.94,South,174,4.0,7.0,82,0.00,,---,0.00,VWS V13.00,2013-02-05 15:05:00,
2013-02-05 08:10:00,26.4,21.4,29.94,South,173,4.0,5.0,81,0.00,,---,0.00,VWS V13.00,2013-02-05 15:10:00,
2013-02-05 08:15:00,26.7,21.4,29.94,South,173,6.0,6.0,80,0.00,,---,0.00,VWS V13.00,2013-02-05 15:15:00,
2013-02-05 08:20:00,26.8,21.5,29.94,South,172,6.0,6.0,80,0.00,,---,0.00,VWS V13.00,2013-02-05 15:20:00,
2013-02-05 08:25:00,26.3,21.0,29.94,SSE,161,7.0,9.0,80,0.00,,---,0.00,VWS V13.00,2013-02-05 15:25:00,
2013-02-05 08:30:00,25.8,20.8,29.94,SSE,157,7.0,10.0,81,0.00,,---,0.00,VWS V13.00,2013-02-05 15:30:00,
2013-02-05 08:35:00,26.0,21.0,29.94,SSE,156,7.0,10.0,81,0.00,,---,0.00,VWS V13.00,2013-02-05 15:35:00,
2013-02-05 08:40:00,26.3,21.3,29.93,SSE,156,6.0,7.0,81,0.00,,---,0.00,VWS V13.00,2013-02-05 15:40:00,
2013-02-05 08:45:00,26.7,21.7,29.93,SSE,156,5.0,7.0,81,0.00,,---,0.00,VWS V13.00,2013-02-05 15:45:00,
2013-02-05 08:50:00,27.0,22.0,29.93,SSE,156,6.0,7.0,81,0.00,,---,0.00,VWS V13.00,2013-02-05 15:50:00,
2013-02-05 08:55:00,27.5,22.1,29.93,SSE,156,4.0,7.0,80,0.00,,---,0.00,VWS V13.00,2013-02-05 15:55:00,
2013-02-05 09:00:00,27.7,22.0,29.93,SSE,156,4.0,7.0,79,0.00,,---,0.00,VWS V13.00,2013-02-05 16:00:00,
2013-02-05 09:05:00,27.8,22.1,29.93,SSE,156,5.0,7.0,79,0.00,,---,0.00,VWS V13.00,2013-02-05 16:05:00,
2013-02-05 09:10:00,27.6,22.2,29.92,SSE,155,6.0,7.0,80,0.00,,---,0.00,VWS V13.00,2013-02-05 16:10:00,
2013-02-05 09:15:00,27.7,22.4,29.92,SSE,152,8.0,9.0,80,0.00,,---,0.00,VWS V13.00,2013-02-05 16:15:00,
2013-02-05 09:20:00,28.1,22.4,29.92,SSE,152,6.0,9.0,79,0.00,,---,0.00,VWS V13.00,2013-02-05 16:20:00,
2013-02-05 09:25:00,28.4,22.7,29.92,SSE,153,7.0,9.0,79,0.00,,---,0.00,VWS V13.00,2013-02-05 16:25:00,
2013-02-05 09:30:00,28.7,23.0,29.92,SSE,153,3.0,9.0,79,0.00,,---,0.00,VWS V13.00,2013-02-05 16:30:00,
2013-02-05 09:35:00,29.2,23.2,29.92,SSE,152,3.0,9.0,78,0.00,,---,0.00,VWS V13.00,2013-02-05 16:35:00,
2013-02-05 09:40:00,29.8,23.5,29.90,SSE,152,4.0,4.0,77,0.00,,---,0.00,VWS V13.00,2013-02-05 16:40:00,
2013-02-05 09:45:00,30.3,23.7,29.90,SSE,153,3.0,4.0,76,0.00,,---,0.00,VWS V13.00,2013-02-05 16:45:00,
2013-02-05 09:50:00,30.8,23.8,29.90,SSE,153,3.0,4.0,75,0.00,,---,0.00,VWS V13.00,2013-02-05 16:50:00,
2013-02-05 09:55:00,31.2,23.9,29.89,SSE,152,4.0,5.0,74,0.00,,---,0.00,VWS V13.00,2013-02-05 16:55:00,
2013-02-05 10:00:00,31.6,24.3,29.89,SSE,153,1.0,5.0,74,0.00,,---,0.00,VWS V13.00,2013-02-05 17:00:00,
2013-02-05 10:05:00,32.3,24.6,29.89,SSE,153,0.0,5.0,73,0.00,,---,0.00,VWS V13.00,2013-02-05 17:05:00,
2013-02-05 10:10:00,33.3,24.9,29.88,SSE,152,0.0,0.0,71,0.00,,---,0.00,VWS V13.00,2013-02-05 17:10:00,
2013-02-05 10:15:00,34.0,24.6,29.88,SSE,152,0.0,0.0,68,0.00,,---,0.00,VWS V13.00,2013-02-05 17:15:00,
2013-02-05 10:20:00,35.3,25.5,29.88,SSE,153,0.0,0.0,67,0.00,,---,0.00,VWS V13.00,2013-02-05 17:20:00,
2013-02-05 10:25:00,36.8,26.1,29.85,SSE,153,0.0,0.0,65,0.00,,---,0.00,VWS V13.00,2013-02-05 17:25:00,
2013-02-05 10:30:00,37.6,26.2,29.85,SSE,153,0.0,0.0,63,0.00,,---,0.00,VWS V13.00,2013-02-05 17:30:00,
2013-02-05 10:35:00,37.9,26.1,29.85,SSE,152,0.0,0.0,62,0.00,,---,0.00,VWS V13.00,2013-02-05 17:35:00,
2013-02-05 10:40:00,38.2,26.3,29.84,SSE,152,0.0,0.0,62,0.00,,---,0.00,VWS V13.00,2013-02-05 17:40:00,
2013-02-05 10:45:00,38.2,26.0,29.84,SSE,153,0.0,0.0,61,0.00,,---,0.00,VWS V13.00,2013-02-05 17:45:00,
2013-02-05 10:50:00,38.6,26.3,29.84,SSE,152,0.0,0.0,61,0.00,,---,0.00,VWS V13.00,2013-02-05 17:50:00,
2013-02-05 10:55:00,38.9,26.2,29.84,SSE,153,0.0,0.0,60,0.00,,---,0.00,VWS V13.00,2013-02-05 17:55:00,
2013-02-05 11:00:00,39.3,26.2,29.84,SSE,153,0.0,0.0,59,0.00,,---,0.00,VWS V13.00,2013-02-05 18:00:00,
2013-02-05 11:05:00,39.9,26.8,29.84,SSE,153,0.0,0.0,59,0.00,,---,0.00,VWS V13.00,2013-02-05 18:05:00,
2013-02-05 11:10:00,40.3,26.7,29.83,WSW,246,9.0,11.0,58,0.00,,---,0.00,VWS V13.00,2013-02-05 18:10:00,
2013-02-05 11:15:00,40.7,25.8,29.83,WSW,248,20.0,20.0,55,0.00,,---,0.00,VWS V13.00,2013-02-05 18:15:00,
2013-02-05 11:20:00,40.8,26.3,29.83,WSW,240,18.0,23.0,56,0.00,,---,0.00,VWS V13.00,2013-02-05 18:20:00,
2013-02-05 11:25:00,41.2,26.3,29.80,SW,232,22.0,24.0,55,0.00,,---,0.00,VWS V13.00,2013-02-05 18:25:00,
2013-02-05 11:30:00,41.5,26.1,29.80,WSW,246,18.0,25.0,54,0.00,,---,0.00,VWS V13.00,2013-02-05 18:30:00,
2013-02-05 11:35:00,41.4,25.6,29.80,WSW,238,16.0,25.0,53,0.00,,---,0.00,VWS V13.00,2013-02-05 18:35:00,
2013-02-05 11:40:00,41.2,26.7,29.80,WSW,244,12.0,12.0,56,0.00,,---,0.00,VWS V13.00,2013-02-05 18:40:00,
2013-02-05 11:45:00,41.3,25.5,29.80,WSW,243,15.0,18.0,53,0.00,,---,0.00,VWS V13.00,2013-02-05 18:45:00,
2013-02-05 11:50:00,41.6,26.6,29.80,WSW,238,13.0,18.0,55,0.00,,---,0.00,VWS V13.00,2013-02-05 18:50:00,
2013-02-05 11:55:00,41.6,26.2,29.80,WSW,242,11.0,18.0,54,0.00,,---,0.00,VWS V13.00,2013-02-05 18:55:00,
2013-02-05 12:00:00,41.6,26.2,29.80,SW,227,15.0,20.0,54,0.00,,---,0.00,VWS V13.00,2013-02-05 19:00:00,
2013-02-05 12:05:00,41.8,26.8,29.80,WSW,240,17.0,20.0,55,0.00,,---,0.00,VWS V13.00,2013-02-05 19:05:00,
2013-02-05 12:10:00,42.0,26.6,29.79,WSW,244,15.0,16.0,54,0.00,,---,0.00,VWS V13.00,2013-02-05 19:10:00,
2013-02-05 12:14:00,42.5,26.6,29.79,WSW,240,17.0,21.0,53,0.00,,---,0.00,VWS V13.00,2013-02-05 19:14:00,
2013-02-05 12:19:00,42.9,26.5,29.79,WSW,240,16.0,21.0,52,0.00,,---,0.00,VWS V13.00,2013-02-05 19:19:00,
2013-02-05 12:24:00,42.9,26.5,29.77,WSW,241,12.0,21.0,52,0.00,,---,0.00,VWS V13.00,2013-02-05 19:24:00,
2013-02-05 12:29:00,43.0,27.5,29.77,WSW,240,10.0,21.0,54,0.00,,---,0.00,VWS V13.00,2013-02-05 19:29:00,
2013-02-05 12:34:00,43.0,27.5,29.77,WSW,238,13.0,21.0,54,0.00,,---,0.00,VWS V13.00,2013-02-05 19:34:00,
2013-02-05 12:39:00,43.2,27.2,29.76,WSW,237,15.0,15.0,53,0.00,,---,0.00,VWS V13.00,2013-02-05 19:39:00,
2013-02-05 12:44:00,43.3,27.3,29.76,WSW,240,16.0,20.0,53,0.00,,---,0.00,VWS V13.00,2013-02-05 19:44:00,
2013-02-05 12:49:00,43.3,27.8,29.76,WSW,244,17.0,20.0,54,0.00,,---,0.00,VWS V13.00,2013-02-05 19:49:00,
2013-02-05 12:54:00,43.0,28.4,29.75,WSW,244,18.0,20.0,56,0.00,,---,0.00,VWS V13.00,2013-02-05 19:54:00,
2013-02-05 12:59:00,42.9,27.9,29.75,WSW,242,18.0,20.0,55,0.00,,---,0.00,VWS V13.00,2013-02-05 19:59:00,
2013-02-05 13:05:00,42.9,28.3,29.75,WSW,242,18.0,20.0,56,0.00,,---,0.00,VWS V13.00,2013-02-05 20:05:00,
2013-02-05 13:10:00,43.1,28.5,29.74,WSW,240,19.0,19.0,56,0.00,,---,0.00,VWS V13.00,2013-02-05 20:10:00,
2013-02-05 13:15:00,43.3,28.7,29.74,WSW,238,17.0,19.0,56,0.00,,---,0.00,VWS V13.00,2013-02-05 20:15:00,
2013-02-05 13:20:00,43.3,29.1,29.74,WSW,240,14.0,20.0,57,0.00,,---,0.00,VWS V13.00,2013-02-05 20:20:00,
2013-02-05 13:25:00,43.3,29.1,29.73,WSW,249,18.0,20.0,57,0.00,,---,0.00,VWS V13.00,2013-02-05 20:25:00,
2013-02-05 13:30:00,43.1,29.3,29.73,WSW,249,15.0,20.0,58,0.00,,---,0.00,VWS V13.00,2013-02-05 20:30:00,
2013-02-05 13:35:00,42.9,29.2,29.73,WSW,240,13.0,21.0,58,0.00,,---,0.00,VWS V13.00,2013-02-05 20:35:00,
2013-02-05 13:40:00,42.8,29.5,29.72,WSW,249,14.0,17.0,59,0.00,,---,0.00,VWS V13.00,2013-02-05 20:40:00,
2013-02-05 13:45:00,42.6,28.9,29.72,SW,234,15.0,19.0,58,0.00,,---,0.00,VWS V13.00,2013-02-05 20:45:00,
2013-02-05 13:50:00,42.5,29.2,29.72,WSW,243,20.0,20.0,59,0.00,,---,0.00,VWS V13.00,2013-02-05 20:50:00,
2013-02-05 13:54:00,42.3,29.0,29.71,WSW,244,19.0,25.0,59,0.00,,---,0.00,VWS V13.00,2013-02-05 20:54:00,
2013-02-05 13:59:00,42.2,29.3,29.71,WSW,248,24.0,25.0,60,0.00,,---,0.00,VWS V13.00,2013-02-05 20:59:00,
2013-02-05 14:04:00,41.8,29.4,29.71,SW,234,20.0,27.0,61,0.00,,---,0.00,VWS V13.00,2013-02-05 21:04:00,
2013-02-05 14:09:00,41.4,29.8,29.71,WSW,240,23.0,26.0,63,0.00,,---,0.00,VWS V13.00,2013-02-05 21:09:00,
2013-02-05 14:14:00,41.1,29.5,29.71,WSW,256,20.0,28.0,63,0.00,,---,0.00,VWS V13.00,2013-02-05 21:14:00,
2013-02-05 14:19:00,40.8,29.6,29.71,WSW,238,19.0,28.0,64,0.00,,---,0.00,VWS V13.00,2013-02-05 21:19:00,
2013-02-05 14:24:00,40.6,29.8,29.73,West,259,20.0,30.0,65,0.00,,---,0.00,VWS V13.00,2013-02-05 21:24:00,
2013-02-05 14:29:00,40.5,30.0,29.73,West,261,19.0,30.0,66,0.00,,---,0.00,VWS V13.00,2013-02-05 21:29:00,
2013-02-05 14:34:00,40.3,30.2,29.73,West,279,21.0,30.0,67,0.00,,---,0.00,VWS V13.00,2013-02-05 21:34:00,
2013-02-05 14:40:00,40.3,30.2,29.75,West,273,20.0,20.0,67,0.00,,---,0.00,VWS V13.00,2013-02-05 21:40:00,
2013-02-05 14:45:00,40.5,30.0,29.75,WNW,288,11.0,23.0,66,0.00,,---,0.00,VWS V13.00,2013-02-05 21:45:00,
2013-02-05 14:50:00,40.7,29.9,29.75,WNW,299,1.0,23.0,65,0.00,,---,0.00,VWS V13.00,2013-02-05 21:50:00,
2013-02-05 14:55:00,40.9,29.7,29.74,WNW,299,2.0,23.0,64,0.00,,---,0.00,VWS V13.00,2013-02-05 21:55:00,
2013-02-05 15:00:00,41.2,29.6,29.74,WSW,252,4.0,23.0,63,0.00,,---,0.00,VWS V13.00,2013-02-05 22:00:00,
2013-02-05 15:05:00,41.4,30.1,29.74,SW,228,5.0,23.0,64,0.00,,---,0.00,VWS V13.00,2013-02-05 22:05:00,
2013-02-05 15:10:00,41.4,30.5,29.74,SW,231,1.0,3.0,65,0.00,,---,0.00,VWS V13.00,2013-02-05 22:10:00,
2013-02-05 15:15:00,41.3,30.1,29.74,SW,230,1.0,3.0,64,0.00,,---,0.00,VWS V13.00,2013-02-05 22:15:00,
2013-02-05 15:20:00,41.1,29.9,29.74,SW,230,4.0,5.0,64,0.00,,---,0.00,VWS V13.00,2013-02-05 22:20:00,
2013-02-05 15:25:00,41.0,29.8,29.73,SW,233,5.0,9.0,64,0.00,,---,0.00,VWS V13.00,2013-02-05 22:25:00,
2013-02-05 15:30:00,40.8,29.6,29.73,WSW,241,7.0,11.0,64,0.00,,---,0.00,VWS V13.00,2013-02-05 22:30:00,
2013-02-05 15:35:00,40.7,29.5,29.73,WSW,247,9.0,12.0,64,0.00,,---,0.00,VWS V13.00,2013-02-05 22:35:00,
2013-02-05 15:40:00,40.7,29.9,29.73,WSW,254,7.0,10.0,65,0.00,,---,0.00,VWS V13.00,2013-02-05 22:40:00,
2013-02-05 15:45:00,40.5,30.0,29.73,WSW,250,9.0,11.0,66,0.00,,---,0.00,VWS V13.00,2013-02-05 22:45:00,
2013-02-05 15:50:00,40.2,29.8,29.73,WSW,242,14.0,24.0,66,0.00,,---,0.00,VWS V13.00,2013-02-05 22:50:00,
2013-02-05 15:55:00,40.2,29.8,29.71,WSW,241,22.0,25.0,66,0.00,,---,0.00,VWS V13.00,2013-02-05 22:55:00,
2013-02-05 16:00:00,40.4,29.6,29.71,WSW,254,22.0,26.0,65,0.00,,---,0.00,VWS V13.00,2013-02-05 23:00:00,
2013-02-05 16:05:00,40.4,29.6,29.71,WSW,251,15.0,26.0,65,0.00,,---,0.00,VWS V13.00,2013-02-05 23:05:00,
2013-02-05 16:10:00,40.5,29.7,29.71,West,268,16.0,19.0,65,0.00,,---,0.00,VWS V13.00,2013-02-05 23:10:00,
2013-02-05 16:15:00,40.3,29.9,29.71,WSW,250,17.0,22.0,66,0.00,,---,0.00,VWS V13.00,2013-02-05 23:15:00,
2013-02-05 16:20:00,40.1,30.0,29.71,WSW,246,17.0,22.0,67,0.00,,---,0.00,VWS V13.00,2013-02-05 23:20:00,
2013-02-05 16:25:00,39.9,29.9,29.69,SW,225,25.0,26.0,67,0.00,,---,0.00,VWS V13.00,2013-02-05 23:25:00,
2013-02-05 16:30:00,39.8,29.8,29.69,SW,236,22.0,27.0,67,0.00,,---,0.00,VWS V13.00,2013-02-05 23:30:00,
2013-02-05 16:35:00,39.7,29.7,29.69,WSW,238,22.0,28.0,67,0.00,,---,0.00,VWS V13.00,2013-02-05 23:35:00,
2013-02-05 16:40:00,39.8,29.4,29.69,WSW,244,23.0,26.0,66,0.00,,---,0.00,VWS V13.00,2013-02-05 23:40:00,
2013-02-05 16:45:00,40.0,29.6,29.69,WSW,238,18.0,27.0,66,0.00,,---,0.00,VWS V13.00,2013-02-05 23:45:00,
2013-02-05 16:50:00,40.0,29.6,29.69,WSW,237,24.0,27.0,66,0.00,,---,0.00,VWS V13.00,2013-02-05 23:50:00,
2013-02-05 16:55:00,40.1,29.3,29.71,WSW,244,20.0,28.0,65,0.00,,---,0.00,VWS V13.00,2013-02-05 23:55:00,
2013-02-05 17:00:00,40.1,29.7,29.71,WSW,240,19.0,28.0,66,0.00,,---,0.00,VWS V13.00,2013-02-06 00:00:00,
2013-02-05 17:05:00,40.1,29.3,29.71,SW,234,19.0,28.0,65,0.00,,---,0.00,VWS V13.00,2013-02-06 00:05:00,
2013-02-05 17:10:00,40.1,29.3,29.71,WSW,244,22.0,22.0,65,0.00,,---,0.00,VWS V13.00,2013-02-06 00:10:00,
2013-02-05 17:15:00,40.1,29.3,29.71,WSW,240,18.0,24.0,65,0.00,,---,0.00,VWS V13.00,2013-02-06 00:15:00,
2013-02-05 17:20:00,40.0,29.2,29.71,WSW,246,21.0,24.0,65,0.00,,---,0.00,VWS V13.00,2013-02-06 00:20:00,
2013-02-05 17:25:00,39.8,29.4,29.71,WSW,242,21.0,24.0,66,0.00,,---,0.00,VWS V13.00,2013-02-06 00:25:00,
2013-02-05 17:30:00,39.5,29.5,29.71,SW,226,15.0,24.0,67,0.00,,---,0.00,VWS V13.00,2013-02-06 00:30:00,
2013-02-05 17:35:00,39.3,29.3,29.71,SW,229,19.0,24.0,67,0.00,,---,0.00,VWS V13.00,2013-02-06 00:35:00,
2013-02-05 17:40:00,39.3,29.3,29.71,WSW,245,19.0,19.0,67,0.00,,---,0.00,VWS V13.00,2013-02-06 00:40:00,
2013-02-05 17:45:00,39.6,29.2,29.71,SW,233,18.0,25.0,66,0.00,,---,0.00,VWS V13.00,2013-02-06 00:45:00,
2013-02-05 17:50:00,40.2,29.0,29.71,WSW,244,24.0,26.0,64,0.00,,---,0.00,VWS V13.00,2013-02-06 00:50:00,
2013-02-05 17:55:00,40.7,28.7,29.71,WSW,248,19.0,26.0,62,0.00,,---,0.00,VWS V13.00,2013-02-06 00:55:00,
2013-02-05 18:00:00,41.0,29.0,29.71,WSW,240,21.0,26.0,62,0.00,,---,0.00,VWS V13.00,2013-02-06 01:00:00,
2013-02-05 18:05:00,41.0,28.6,29.71,WSW,244,22.0,26.0,61,0.00,,---,0.00,VWS V13.00,2013-02-06 01:05:00,
2013-02-05 18:10:00,41.1,28.7,29.71,WSW,240,19.0,23.0,61,0.00,,---,0.00,VWS V13.00,2013-02-06 01:10:00,
2013-02-05 18:15:00,41.1,28.7,29.71,WSW,238,18.0,24.0,61,0.00,,---,0.00,VWS V13.00,2013-02-06 01:15:00,
2013-02-05 18:20:00,41.0,28.6,29.71,WSW,248,18.0,24.0,61,0.00,,---,0.00,VWS V13.00,2013-02-06 01:20:00,
2013-02-05 18:25:00,40.9,28.5,29.72,WSW,242,15.0,24.0,61,0.00,,---,0.00,VWS V13.00,2013-02-06 01:25:00,
2013-02-05 18:30:00,40.8,28.8,29.72,WSW,246,14.0,24.0,62,0.00,,---,0.00,VWS V13.00,2013-02-06 01:30:00,
2013-02-05 18:35:00,40.5,28.5,29.72,SW,235,14.0,24.0,62,0.00,,---,0.00,VWS V13.00,2013-02-06 01:35:00,
2013-02-05 18:40:00,40.1,28.9,29.73,SW,234,14.0,17.0,64,0.00,,---,0.00,VWS V13.00,2013-02-06 01:40:00,
2013-02-05 18:45:00,39.6,28.8,29.73,WSW,240,15.0,17.0,65,0.00,,---,0.00,VWS V13.00,2013-02-06 01:45:00,
2013-02-05 18:50:00,39.2,28.4,29.73,WSW,242,15.0,18.0,65,0.00,,---,0.00,VWS V13.00,2013-02-06 01:50:00,
2013-02-05 18:55:00,38.9,28.5,29.74,SW,223,13.0,18.0,66,0.00,,---,0.00,VWS V13.00,2013-02-06 01:55:00,
2013-02-05 19:00:00,38.5,28.9,29.74,WSW,237,11.0,18.0,68,0.00,,---,0.00,VWS V13.00,2013-02-06 02:00:00,
2013-02-05 19:05:00,38.1,28.5,29.74,SW,226,13.0,18.0,68,0.00,,---,0.00,VWS V13.00,2013-02-06 02:05:00,
2013-02-05 19:10:00,37.9,28.6,29.73,SW,230,14.0,14.0,69,0.00,,---,0.00,VWS V13.00,2013-02-06 02:10:00,
2013-02-05 19:15:00,37.8,28.6,29.73,SW,234,13.0,16.0,69,0.00,,---,0.00,VWS V13.00,2013-02-06 02:15:00,
2013-02-05 19:20:00,37.8,28.2,29.73,SW,222,12.0,17.0,68,0.00,,---,0.00,VWS V13.00,2013-02-06 02:20:00,
2013-02-05 19:25:00,37.9,28.3,29.73,SW,229,12.0,17.0,68,0.00,,---,0.00,VWS V13.00,2013-02-06 02:25:00,
2013-02-05 19:30:00,37.8,28.2,29.73,WSW,238,10.0,17.0,68,0.00,,---,0.00,VWS V13.00,2013-02-06 02:30:00,
2013-02-05 19:35:00,37.9,27.9,29.73,SW,231,11.0,18.0,67,0.00,,---,0.00,VWS V13.00,2013-02-06 02:35:00,
2013-02-05 19:40:00,38.2,28.2,29.73,WSW,242,13.0,15.0,67,0.00,,---,0.00,VWS V13.00,2013-02-06 02:40:00,
2013-02-05 19:45:00,38.3,28.0,29.73,WSW,242,12.0,18.0,66,0.00,,---,0.00,VWS V13.00,2013-02-06 02:45:00,
2013-02-05 19:50:00,38.4,27.7,29.73,WSW,246,10.0,18.0,65,0.00,,---,0.00,VWS V13.00,2013-02-06 02:50:00,
2013-02-05 19:55:00,38.3,28.0,29.73,WSW,239,10.0,18.0,66,0.00,,---,0.00,VWS V13.00,2013-02-06 02:55:00,
2013-02-05 20:00:00,38.0,28.0,29.73,WSW,253,10.0,18.0,67,0.00,,---,0.00,VWS V13.00,2013-02-06 03:00:00,
2013-02-05 20:05:00,37.7,28.1,29.73,WSW,256,5.0,18.0,68,0.00,,---,0.00,VWS V13.00,2013-02-06 03:05:00,
2013-02-05 20:10:00,37.3,27.7,29.74,West,263,10.0,11.0,68,0.00,,---,0.00,VWS V13.00,2013-02-06 03:10:00,
2013-02-05 20:15:00,36.8,28.0,29.74,West,267,8.0,11.0,70,0.00,,---,0.00,VWS V13.00,2013-02-06 03:15:00,
2013-02-05 20:20:00,36.4,27.6,29.74,West,273,6.0,11.0,70,0.00,,---,0.00,VWS V13.00,2013-02-06 03:20:00,
2013-02-05 20:25:00,36.0,27.5,29.74,West,273,5.0,11.0,71,0.00,,---,0.00,VWS V13.00,2013-02-06 03:25:00,
2013-02-05 20:30:00,35.6,27.5,29.74,West,273,3.0,11.0,72,0.00,,---,0.00,VWS V13.00,2013-02-06 03:30:00,
2013-02-05 20:35:00,35.1,27.3,29.74,West,273,4.0,11.0,73,0.00,,---,0.00,VWS V13.00,2013-02-06 03:35:00,
2013-02-05 20:40:00,34.7,27.3,29.75,West,273,6.0,6.0,74,0.00,,---,0.00,VWS V13.00,2013-02-06 03:40:00,
2013-02-05 20:45:00,34.4,27.0,29.75,West,271,7.0,9.0,74,0.00,,---,0.00,VWS V13.00,2013-02-06 03:45:00,
2013-02-05 20:50:00,34.3,27.2,29.75,West,268,9.0,10.0,75,0.00,,---,0.00,VWS V13.00,2013-02-06 03:50:00,
2013-02-05 20:55:00,34.1,27.0,29.73,West,262,12.0,12.0,75,0.00,,---,0.00,VWS V13.00,2013-02-06 03:55:00,
2013-02-05 21:00:00,33.9,26.8,29.73,West,259,9.0,13.0,75,0.00,,---,0.00,VWS V13.00,2013-02-06 04:00:00,
2013-02-05 21:05:00,33.7,26.6,29.73,West,259,7.0,13.0,75,0.00,,---,0.00,VWS V13.00,2013-02-06 04:05:00,
2013-02-05 21:10:00,33.7,27.0,29.74,WSW,254,12.0,13.0,76,0.00,,---,0.00,VWS V13.00,2013-02-06 04:10:00,
2013-02-05 21:15:00,33.8,28.6,29.74,WSW,252,7.0,13.0,81,0.00,,---,0.00,VWS V13.00,2013-02-06 04:15:00,
2013-02-05 21:20:00,34.4,27.0,29.74,WSW,250,11.0,14.0,74,0.00,,---,0.00,VWS V13.00,2013-02-06 04:20:00,
2013-02-05 21:25:00,35.5,27.4,29.73,WSW,253,11.0,16.0,72,0.00,,---,0.00,VWS V13.00,2013-02-06 04:25:00,
2013-02-05 21:30:00,36.3,27.5,29.73,WSW,249,14.0,16.0,70,0.00,,---,0.00,VWS V13.00,2013-02-06 04:30:00,
2013-02-05 21:35:00,37.0,27.8,29.73,SW,234,13.0,16.0,69,0.00,,---,0.00,VWS V13.00,2013-02-06 04:35:00,
2013-02-05 21:40:00,36.8,28.0,29.73,WSW,237,11.0,13.0,70,0.00,,---,0.00,VWS V13.00,2013-02-06 04:40:00,
2013-02-05 21:45:00,36.4,27.6,29.73,SW,226,11.0,14.0,70,0.00,,---,0.00,VWS V13.00,2013-02-06 04:45:00,
2013-02-05 21:50:00,36.0,27.5,29.73,SW,233,5.0,14.0,71,0.00,,---,0.00,VWS V13.00,2013-02-06 04:50:00,
2013-02-05 21:55:00,35.8,27.3,29.69,SW,232,10.0,14.0,71,0.00,,---,0.00,VWS V13.00,2013-02-06 04:55:00,
2013-02-05 22:00:00,35.7,26.9,29.69,WSW,241,10.0,14.0,70,0.00,,---,0.00,VWS V13.00,2013-02-06 05:00:00,
2013-02-05 22:05:00,35.7,26.5,29.69,WSW,237,11.0,14.0,69,0.00,,---,0.00,VWS V13.00,2013-02-06 05:05:00,
2013-02-05 22:10:00,35.9,26.7,29.69,SW,229,6.0,11.0,69,0.00,,---,0.00,VWS V13.00,2013-02-06 05:10:00,
2013-02-05 22:15:00,35.8,26.6,29.69,SW,233,10.0,12.0,69,0.00,,---,0.00,VWS V13.00,2013-02-06 05:15:00,
2013-02-05 22:20:00,35.7,26.5,29.69,SW,218,10.0,12.0,69,0.00,,---,0.00,VWS V13.00,2013-02-06 05:20:00,
2013-02-05 22:25:00,35.7,26.2,29.68,SW,214,11.0,13.0,68,0.00,,---,0.00,VWS V13.00,2013-02-06 05:25:00,
2013-02-05 22:30:00,35.7,25.8,29.68,SSW,209,10.0,13.0,67,0.00,,---,0.00,VWS V13.00,2013-02-06 05:30:00,
2013-02-05 22:35:00,35.7,25.8,29.68,SW,229,9.0,13.0,67,0.00,,---,0.00,VWS V13.00,2013-02-06 05:35:00,
2013-02-05 22:40:00,35.7,25.8,29.69,WSW,240,11.0,13.0,67,0.00,,---,0.00,VWS V13.00,2013-02-06 05:40:00,
2013-02-05 22:45:00,35.6,26.1,29.69,WSW,245,9.0,13.0,68,0.00,,---,0.00,VWS V13.00,2013-02-06 05:45:00,
2013-02-05 22:50:00,35.2,25.7,29.69,SW,236,9.0,13.0,68,0.00,,---,0.00,VWS V13.00,2013-02-06 05:50:00,
2013-02-05 22:55:00,34.9,25.4,29.68,SW,233,11.0,15.0,68,0.00,,---,0.00,VWS V13.00,2013-02-06 05:55:00,
2013-02-05 23:00:00,34.8,25.3,29.68,SW,236,10.0,15.0,68,0.00,,---,0.00,VWS V13.00,2013-02-06 06:00:00,
2013-02-05 23:05:00,34.8,25.3,29.68,WSW,238,11.0,15.0,68,0.00,,---,0.00,VWS V13.00,2013-02-06 06:05:00,
2013-02-05 23:10:00,34.7,25.2,29.68,SW,233,9.0,9.0,68,0.00,,---,0.00,VWS V13.00,2013-02-06 06:10:00,
2013-02-05 23:15:00,35.0,25.5,29.68,SW,232,0.0,9.0,68,0.00,,---,0.00,VWS V13.00,2013-02-06 06:15:00,
2013-02-05 23:20:00,35.1,25.3,29.68,SW,230,0.0,9.0,67,0.00,,---,0.00,VWS V13.00,2013-02-06 06:20:00,
2013-02-05 23:25:00,35.1,25.3,29.69,SW,232,0.0,9.0,67,0.00,,---,0.00,VWS V13.00,2013-02-06 06:25:00,
2013-02-05 23:30:00,34.7,25.2,29.69,West,275,3.0,9.0,68,0.00,,---,0.00,VWS V13.00,2013-02-06 06:30:00,
2013-02-05 23:35:00,34.4,25.3,29.69,WNW,294,0.0,9.0,69,0.00,,---,0.00,VWS V13.00,2013-02-06 06:35:00,
2013-02-05 23:40:00,34.4,25.3,29.70,WNW,294,0.0,0.0,69,0.00,,---,0.00,VWS V13.00,2013-02-06 06:40:00,
2013-02-05 23:45:00,34.2,24.8,29.70,WNW,294,0.0,0.0,68,0.00,,---,0.00,VWS V13.00,2013-02-06 06:45:00,
2013-02-05 23:50:00,34.3,24.9,29.70,WNW,294,0.0,0.0,68,0.00,,---,0.00,VWS V13.00,2013-02-06 06:50:00,
2013-02-05 23:55:00,34.4,25.0,29.71,WNW,294,0.0,0.0,68,0.00,,---,0.00,VWS V13.00,2013-02-06 06:55:00,